Home > Weather > Woodstock > Past weeks

Flag for USA Past Weather in Woodstock, New York, USA — Yesterday and Last 2 Weeks

Now
72 °F

Clear.


Feels Like: 71 °F
Forecast: 69 / 87 °F
Wind: No wind

Location: Dutchess County Airport

Current Time: May 29, 2016 at 1:52:27 AM

Latest Report: May 29, 2016 at 12:53 AM


Visibility: 10 mi

Pressure: 30.09 "Hg

Humidity: 84%

Dew Point: 67 °F

Location of WoodstockLocation

Past Weather in Woodstock — Graph

°F

Woodstock Temperature Yesterday

Maximum temperature yesterday: 94 °F (at 2:53 PM)
Minimum temperature yesterday: 67 °F (at 3:53 AM)
Average temperature yesterday: 80 °F

High & Low Weather Summary for the Past Weeks

 TemperatureHumidityPressure
High94 °F (May 28, 2:53 PM)93% (May 13, 11:53 PM)30.27 "Hg (May 13, 11:53 PM)
Low41 °F (May 16, 5:53 AM)21% (May 25, 3:53 PM)29.55 "Hg (May 14, 5:53 PM)
Average64 °F60%29.97 "Hg
* Reported May 13 11:53 PM — May 28 11:53 PM, Woodstock, Weather by CustomWeather, © 2016

Note: Actual official high and low records may vary slightly from our data, if they occured in-between our weather recording intervals... More about our weather records

Advertising

Woodstock Weather History for the Previous 24 Hours

Scroll right to see more
 ConditionsComfort  
Time TempWeatherWind HumidityBarometerVisibility
11:53 PM
Sat, May 28
73 °FClear.No wind81%30.09 "Hg10 mi
10:53 PM75 °FClear.No wind79%30.08 "Hg10 mi
9:53 PM77 °FClear.No wind74%30.08 "Hg10 mi
8:53 PM82 °FSunny.No wind60%30.06 "Hg10 mi
7:53 PM85 °FPassing clouds.3 mph55%30.05 "Hg10 mi
6:53 PM89 °FSunny.9 mph45%30.03 "Hg10 mi
5:53 PM91 °FSunny.12 mph42%30.02 "Hg10 mi
4:53 PM94 °FSunny.7 mph36%30.02 "Hg10 mi
3:53 PM93 °FPassing clouds.9 mph38%30.02 "Hg10 mi
2:53 PM94 °FSunny.10 mph38%30.03 "Hg10 mi
1:53 PM92 °FSunny.6 mph41%30.05 "Hg10 mi
12:53 PM90 °FSunny.7 mph48%30.06 "Hg10 mi
11:53 AM87 °FSunny.5 mph53%30.08 "Hg10 mi
10:53 AM85 °FSunny.5 mph57%30.08 "Hg10 mi
9:53 AM82 °FSunny.7 mph65%30.08 "Hg10 mi
8:53 AM79 °FSunny.7 mph69%30.08 "Hg9 mi
7:53 AM76 °FScattered clouds.6 mph77%30.08 "Hg8 mi
6:53 AM70 °FFog.No wind87%30.07 "Hg6 mi
5:53 AM67 °FFog.No wind90%30.06 "Hg3 mi
4:53 AM67 °FFog.No wind87%30.04 "Hg6 mi
3:53 AM67 °FFog.No wind90%30.03 "Hg5 mi
2:53 AM68 °FFog.No wind87%30.03 "Hg6 mi
1:53 AM68 °FFog.No wind90%30.03 "Hg5 mi
Weather by CustomWeather, © 2016

See weather overviewHow to use our weather pages